RH
27 27 27 29 30 29 30 30 31 36 44 49 59 61 58 52 50 53 54 53 56 56 57 55 51 45 42 42 43 44 41 39
32 31 31 31 32 30 30 32 33 38 43 46 46 54 58 58 52 54 53 53 55 56 58 59 53 47 49 51 49 48 46 42
35 36 32 29 29 31 30 30 33 35 39 39 44 44 49 51 54 56 54 57 58 58 59 61 58 51 50 51 52 51 48 45
35 37 36 32 31 33 33 31 32 34 38 46 51 53 58 58 52 50 50 54 57 58 61 62 60 56 53 55 54 51 49 50
40 37 36 36 32 31 32 36 36 37 42 46 48 46 46 47 47 44 45 50 57 60 60 65 66 62 58 55 55 53 51 49
40 38 38 39 39 33 34 36 38 42 45 45 48 52 55 55 55 56 58 54 53 60 61 65 70 67 62 57 55 54 54 53
43 43 46 47 45 42 38 40 40 44 46 46 48 51 56 59 57 56 57 58 55 55 62 64 71 73 68 62 57 56 56 59
46 45 42 44 43 43 46 46 46 48 50 50 49 53 58 59 61 59 61 61 60 55 58 63 66 74 77 72 65 62 60 62
41 37 36 41 46 46 44 49 53 53 51 52 53 58 61 63 67 64 64 64 64 63 62 65 66 75 80 82 78 72 68 68
49 42 43 40 45 41 45 51 52 54 50 58 60 62 61 63 69 69 68 69 71 72 71 69 71 75 79 83 87 85 80 77
61 56 49 43 44 45 45 48 52 54 61 64 68 68 71 74 74 74 69 65 67 73 74 78 80 81 84 85 89 91 86 83
69 66 60 53 50 56 59 60 58 63 71 74 80 73 77 79 82 76 68 66 67 74 78 83 84 84 88 88 91 93 87 88
83 77 68 67 65 61 65 76 77 76 79 74 84 82 77 80 77 73 68 69 70 79 86 85 84 86 88 90 90 89 90 91
66 80 75 75 76 75 77 77 81 82 85 83 89 88 87 82 76 73 74 73 76 82 87 88 93 92 93 91 93 96 97 96
57 55 59 63 61 63 77 91 89 90 91 94 94 94 91 88 81 79 79 82 81 85 91 93 95 92 93 96 99 98 97 98
58 59 59 59 54 66 74 82 98 97 96 98 95 95 95 88 88 85 87 84 86 88 88 91 92 91 92 93 95 97 98 98
58 61 55 59 56 63 63 76 85 96 99 96 96 99 92 92 92 89 92 88 86 87 88 89 89 91 94 97 98 98 98 97
58 55 64 69 60 56 58 67 72 80 87 94 98 98 99 96 94 94 91 89 88 88 90 91 91 92 94 95 98 97 95 95
59 60 68 75 68 61 67 63 61 75 65 80 94 97 98 99 98 97 95 94 92 93 95 94 94 95 95 95 94 93 91 91